Theta_e
339 340 340 339 338 338 338 337 335 336 336 343 344 342 345 353 354 355 355 352 351 350 351 352 353 353 353 354 355 356 358 357 357 357 356 354 354 354 354 353 348 347 347 345
340 341 339 336 337 337 337 335 336 337 338 342 341 339 342 346 351 351 352 355 352 352 354 348 340 344 351 354 355 356 358 359 359 358 357 356 356 355 355 355 355 353 349 349
340 339 336 336 337 337 337 335 335 337 338 337 337 336 341 346 348 351 351 352 353 354 351 345 338 338 342 350 354 356 358 359 359 358 357 357 356 356 356 355 355 355 353 351
339 337 336 337 337 335 337 332 333 333 334 336 334 335 337 345 346 350 352 353 353 354 348 345 341 339 343 348 352 354 357 358 359 359 357 357 356 356 355 354 356 356 355 354
339 338 338 337 336 332 334 333 333 333 334 334 336 335 345 344 349 353 355 354 351 353 353 348 344 345 344 350 351 353 355 357 358 357 358 357 357 355 355 356 356 355 357 357
337 335 335 337 333 331 332 333 334 334 334 336 337 338 338 346 349 348 352 355 351 352 354 353 351 351 352 351 351 351 355 357 358 358 358 358 358 357 357 357 357 357 356 356
337 336 335 333 335 331 333 334 336 337 336 337 339 341 347 347 346 346 351 356 354 354 354 354 354 353 353 353 353 353 356 359 359 358 358 357 357 358 358 355 353 354 354 355
337 338 336 335 336 336 336 334 335 337 334 335 342 341 348 347 348 349 353 354 355 355 356 355 354 353 350 353 356 356 358 358 359 358 358 357 355 351 345 347 350 353 353 355
335 335 334 332 332 333 334 333 332 331 332 334 338 340 344 346 348 351 356 357 357 357 358 358 353 352 354 350 350 353 358 360 360 358 356 352 349 349 348 348 350 350 353 355
332 338 332 329 329 330 333 332 332 331 336 337 338 338 337 348 350 353 357 358 357 355 354 354 355 355 352 350 351 354 357 357 356 353 351 351 352 348 349 349 348 350 352 357
333 334 330 333 333 332 331 332 332 332 333 336 336 338 345 348 348 350 357 356 354 357 357 354 354 354 354 353 351 349 352 354 354 353 354 354 352 353 355 355 355 356 358 359
332 332 334 336 336 333 334 334 334 337 343 338 338 339 347 347 345 350 356 354 349 353 356 354 352 349 350 351 352 351 351 350 350 351 351 348 350 353 352 351 349 349 354 360
331 332 338 339 338 339 338 339 336 334 333 337 338 345 350 348 348 348 355 353 352 353 355 354 351 349 347 345 345 346 347 347 346 346 346 346 348 347 347 347 348 347 348 349
332 332 333 336 337 337 338 338 337 334 335 338 337 340 353 353 353 352 352 352 354 352 350 344 342 340 339 339 339 339 339 338 337 339 343 347 348 348 349 348 349 345 345 346
330 332 332 334 335 336 337 339 338 338 338 336 338 339 351 354 356 356 354 350 345 344 342 341 339 337 336 336 336 335 335 335 335 336 337 338 339 342 345 347 348 349 345 344
330 337 336 338 337 338 339 339 339 340 340 339 339 342 346 352 348 348 346 345 343 340 338 337 336 334 333 332 332 333 333 333 333 334 334 335 336 337 339 341 342 344 345 344
331 338 339 337 338 338 340 340 339 340 340 339 338 348 348 349 347 345 343 341 339 337 336 335 334 332 332 331 330 331 332 332 333 333 333 334 334 334 335 336 337 338 339 341
335 338 338 342 340 342 341 339 339 339 339 339 342 343 346 345 341 339 338 338 337 336 335 334 332 331 330 330 330 331 331 331 331 332 331 331 331 332 333 333 333 334 335 336
337 339 342 342 340 340 340 339 340 340 340 340 341 340 340 339 338 338 336 334 334 333 332 331 330 330 330 330 329 329 329 328 327 325 324 324 324 325 325 325 329 332 332 333
338 338 339 341 339 341 342 339 337 338 338 340 340 340 340 338 343 344 336 333 332 331 330 330 329 329 329 328 327 326 325 324 323 321 320 320 320 320 320 321 323 323 326 332
339 338 339 340 338 339 339 337 337 341 344 339 338 339 339 339 339 336 333 333 331 330 329 328 328 328 326 325 323 323 322 321 319 319 318 319 320 320 319 318 317 318 318 321
342 339 339 340 339 338 337 337 341 343 339 337 337 336 335 336 335 334 333 331 330 329 328 327 327 325 324 321 320 320 319 319 317 317 318 319 320 320 319 318 318 317 316 318
341 343 341 345 346 341 337 340 337 336 337 336 336 334 334 334 334 333 332 330 328 326 325 325 323 321 318 318 318 319 319 317 317 318 319 318 318 318 318 316 315 315 315 316
341 338 342 343 339 338 337 334 335 335 336 335 334 334 334 334 332 331 329 328 326 324 321 316 314 314 315 317 319 319 318 316 316 317 317 317 317 317 316 315 316 316 315 316
340 340 343 343 339 336 335 335 335 335 334 334 333 333 332 332 330 328 328 326 319 315 313 312 312 312 313 315 318 319 317 317 316 316 315 315 315 316 316 316 316 316 315 316
337 341 339 339 341 339 338 335 334 334 334 333 332 331 329 328 328 327 323 317 315 315 314 313 312 311 312 314 317 318 317 317 317 316 315 314 314 315 315 315 315 316 317 317
Wind_Speed
12 11 11 7 4 6 6 7 6 2 1 5 7 8 6 10 12 12 13 14 13 11 8 7 2 10 14 13 14 16 17 16 17 17 17 18 18 16 15 16 18 22 18 17
10 15 7 2 5 5 7 7 2 5 4 5 2 7 1 4 9 11 12 13 13 14 10 6 1 6 15 14 16 17 19 17 19 17 15 14 12 13 12 10 11 13 13 15
18 12 5 5 5 8 9 5 5 7 6 2 4 10 8 9 4 6 10 10 14 15 14 13 16 13 14 14 15 16 17 17 18 16 15 13 11 11 11 12 12 12 13 14
20 12 5 6 7 6 8 3 4 5 9 3 3 5 6 5 5 5 8 12 14 17 17 13 14 9 7 9 10 11 13 15 15 16 17 17 14 13 10 11 10 10 12 12
18 10 14 11 3 4 6 4 0 1 6 7 8 7 10 4 7 9 8 3 9 18 22 19 17 13 10 7 10 9 11 14 12 12 16 15 15 12 10 11 11 12 12 14
18 5 6 7 0 4 5 6 5 5 7 11 6 7 7 5 4 6 10 8 7 9 19 17 20 15 14 10 10 9 10 10 9 9 11 13 12 10 12 10 12 13 13 14
20 15 9 6 6 5 13 11 8 6 7 1 5 6 10 6 5 5 7 10 10 10 10 10 9 10 9 6 6 6 6 6 5 6 7 8 9 10 12 13 14 13 12 12
18 19 19 9 12 10 12 11 7 4 7 5 5 5 7 6 7 8 8 10 11 10 11 11 8 2 3 4 7 5 2 2 2 3 4 4 7 7 11 11 10 10 11 11
16 15 11 5 7 11 8 10 7 10 4 6 4 4 10 8 7 8 10 11 10 9 10 8 8 11 6 6 6 7 5 4 2 2 3 3 6 9 9 9 9 10 11 11
14 13 9 7 9 4 8 2 6 5 3 9 6 3 5 7 10 9 10 12 12 9 9 9 11 11 7 8 8 7 6 4 3 0 2 4 4 7 9 9 13 14 14 12
13 8 9 11 9 12 7 10 6 5 5 7 6 3 10 6 3 11 11 11 10 10 11 11 12 12 9 7 6 6 5 5 5 4 4 5 5 6 7 8 10 11 10 10
9 7 11 8 4 2 3 2 6 8 10 3 8 4 8 6 5 7 10 11 9 8 9 11 11 9 7 6 5 6 5 7 7 6 5 5 5 6 7 6 5 6 6 5
10 7 10 11 9 6 6 4 4 7 5 6 8 5 8 9 8 6 10 9 9 8 8 7 10 8 8 8 6 7 7 8 8 8 9 9 9 9 8 8 8 7 8 6
11 8 9 5 5 9 8 8 4 7 7 1 5 1 11 8 6 8 9 10 10 9 8 10 8 10 10 11 11 10 11 13 14 13 12 13 15 14 13 13 12 12 11 10
12 8 5 4 4 2 4 7 4 7 6 8 10 7 7 4 7 8 11 11 11 10 9 8 6 8 10 11 12 13 14 15 16 16 14 13 14 15 15 16 16 14 16 15
10 4 7 3 5 9 6 5 3 2 3 8 6 3 4 8 10 11 11 10 9 8 8 6 8 9 11 13 13 15 16 17 17 17 17 17 16 15 13 12 14 16 18 18
12 8 9 8 6 6 8 5 2 0 3 6 8 9 9 11 11 10 10 8 9 7 7 7 8 11 12 14 15 17 18 18 18 17 17 17 19 20 20 19 17 16 16 17
14 13 7 6 8 10 6 2 2 4 2 3 2 9 9 10 10 10 8 7 7 6 6 6 8 10 12 14 15 15 16 15 16 16 18 20 21 22 22 23 23 20 19 18
15 10 5 6 11 4 6 5 5 6 3 4 8 10 11 11 11 8 7 7 6 5 6 7 10 11 12 15 16 17 17 18 16 18 20 23 24 25 24 24 24 25 26 24
10 7 7 5 6 6 9 10 5 2 7 11 10 12 13 11 8 9 7 5 5 7 9 11 12 11 13 15 16 16 16 15 19 22 23 23 23 24 25 26 26 26 27 27
9 6 8 8 5 5 6 9 8 6 5 11 11 11 10 6 6 9 6 5 6 7 9 10 9 11 12 14 16 16 16 17 21 22 23 23 22 22 22 23 24 24 25 26
8 7 5 2 4 7 11 10 5 4 6 10 11 8 7 9 8 7 5 5 6 8 9 9 9 10 11 14 15 15 16 19 21 22 22 23 24 24 24 24 25 24 23 24
4 3 1 4 4 5 13 5 6 4 9 9 10 9 9 8 6 4 3 3 6 8 6 7 9 9 10 12 11 14 17 20 22 22 23 24 24 22 21 23 25 24 21 20
3 2 2 6 5 8 8 5 6 11 11 11 10 10 8 8 6 4 3 4 5 4 7 8 8 9 10 12 12 13 17 21 21 21 23 22 23 24 21 22 20 20 20 18
3 7 6 4 6 7 6 8 11 13 13 13 11 9 8 7 5 3 5 5 7 7 7 8 10 11 12 13 13 13 17 21 21 20 21 20 21 21 23 21 22 22 22 20
7 5 5 1 13 2 14 13 14 14 13 12 12 10 8 6 7 7 8 7 6 7 8 9 10 11 13 13 13 14 15 18 20 20 19 20 21 21 21 22 25 23 21 22
Wind_Direction
208 231 222 50 22 343 304 289 295 327 228 237 238 261 130 177 203 198 189 174 175 174 149 145 318 277 239 232 238 234 230 224 214 214 212 216 223 229 238 242 241 240 249 240
191 228 90 234 282 280 270 283 104 99 151 226 187 257 112 168 204 221 205 176 174 149 123 126 164 257 256 234 236 236 236 228 221 221 226 229 240 238 241 244 242 233 235 228
212 197 129 244 241 266 218 266 116 93 151 186 259 239 189 134 178 206 202 191 167 156 150 153 212 213 228 241 240 240 242 237 231 225 227 225 230 242 239 240 245 245 235 230
217 135 199 225 262 270 226 123 120 132 251 23 254 312 154 129 123 135 162 182 187 164 167 183 228 221 216 234 248 246 244 239 235 227 230 231 234 231 236 246 235 228 230 226
202 196 217 235 259 315 60 125 83 271 276 276 163 266 121 150 123 102 82 104 213 183 174 198 215 222 240 266 248 236 229 234 232 229 232 236 243 253 258 249 246 249 242 234
205 149 221 244 214 299 161 154 188 219 270 253 86 279 123 68 68 102 92 90 122 173 166 204 224 245 264 257 236 224 220 230 236 237 237 243 250 257 267 267 263 253 244 237
211 185 196 229 240 192 223 217 229 224 207 31 94 249 56 102 79 72 87 112 122 138 153 183 209 221 218 205 202 213 215 226 234 227 233 253 260 261 272 274 271 263 253 242
197 202 221 201 244 250 213 282 270 240 251 201 137 238 99 93 95 106 101 123 128 143 138 146 149 205 205 184 152 159 177 189 187 214 205 224 255 267 287 278 261 247 259 261
196 213 187 191 222 258 168 230 348 291 218 281 140 143 176 148 123 114 111 125 132 119 106 93 90 90 125 160 129 117 107 102 119 177 185 210 260 268 274 264 248 254 258 262
188 179 184 152 184 198 276 47 209 204 194 245 155 270 301 152 148 139 136 132 135 132 128 120 98 93 101 105 96 96 95 90 85 118 294 303 283 254 269 265 253 259 265 262
169 235 153 182 207 195 177 210 231 313 306 302 252 173 69 88 127 153 143 138 135 135 126 116 98 91 90 91 86 84 83 82 70 52 9 339 324 304 288 272 265 263 260 258
211 223 169 128 108 237 305 314 212 237 170 226 324 356 58 67 146 132 138 147 125 116 120 119 109 94 88 77 63 64 53 52 48 32 2 337 324 316 304 298 318 323 304 277
178 214 137 147 158 166 188 160 307 293 313 254 296 64 68 89 98 142 140 139 129 119 115 107 68 60 67 64 46 33 26 19 5 348 333 319 309 305 297 288 295 309 305 293
200 194 236 181 134 145 161 179 220 287 294 303 257 113 84 74 102 109 111 127 112 94 90 83 82 65 57 42 34 25 19 12 9 3 347 323 312 302 291 287 283 290 294 288
217 183 236 353 61 117 130 169 194 265 342 288 5 335 62 77 110 111 113 118 116 97 82 85 72 50 41 31 11 6 2 358 351 347 341 336 327 313 298 290 286 285 281 283
217 125 179 145 166 164 160 154 181 236 277 278 296 238 85 112 116 112 102 107 102 88 78 42 40 28 14 7 356 354 350 345 339 335 328 322 317 315 315 309 294 289 284 276
188 159 195 152 150 149 200 165 198 248 259 312 288 81 142 139 127 124 121 122 112 88 61 31 18 9 359 350 351 351 344 341 341 337 332 330 330 327 322 317 310 303 296 287
192 186 204 131 169 218 80 117 230 273 314 258 126 142 147 134 125 118 113 110 92 65 39 22 2 353 350 351 352 344 340 339 338 339 338 338 335 327 323 318 315 309 300 291
169 173 146 171 211 90 166 178 176 216 133 197 159 152 146 146 137 119 96 81 72 53 27 6 1 352 348 349 346 343 343 345 344 339 340 337 333 326 321 317 315 313 309 302
153 202 190 202 199 233 77 134 134 150 251 166 163 168 167 174 223 110 118 76 49 30 16 1 352 345 355 356 353 351 353 351 346 341 333 326 325 325 322 318 314 308 307 302
153 195 206 182 253 105 118 138 159 234 73 156 168 167 171 201 47 108 106 76 41 21 5 356 357 4 358 360 354 350 346 345 335 330 326 323 320 319 317 315 312 311 305 296
180 196 198 215 253 244 150 150 217 67 141 149 154 153 138 118 117 98 81 46 22 11 13 12 8 3 358 356 354 345 339 335 329 325 322 323 325 325 323 319 314 311 307 304
195 344 29 332 39 127 161 60 113 132 138 142 139 137 135 131 117 108 83 49 33 26 19 12 4 358 355 354 348 336 335 335 331 328 326 325 322 322 320 312 305 304 307 305
140 146 175 179 124 147 159 125 147 137 133 131 129 127 130 123 120 109 74 54 55 50 34 18 7 5 359 355 348 344 342 338 334 329 326 325 324 323 323 316 310 306 300 297
39 165 160 101 133 130 164 157 137 127 125 122 118 113 110 117 106 100 99 90 78 58 35 19 9 2 356 349 344 346 341 343 338 336 335 330 329 327 326 322 316 310 304 297
187 151 208 61 152 223 158 151 147 138 135 129 124 116 101 104 110 117 103 96 72 48 28 20 11 3 355 350 345 347 346 348 349 346 341 335 335 335 334 335 334 340 337 336